Погода в Рудницком

Россия / Брянская область     52°56′44″N   32°12′15″E
темп.,
°C
ветер,
м/с
пор.,
м/с
влажн.,
%
обл.,
%
осадки,
мм/ч
давл.,
гПа
погр.,
м
4 июля, пн
пн400:00+18ссз117725 0.0 101811
03:00+17ссз128799 0.0 101811
06:00+19сз118812 0.0 101711
09:00+23з22735 0.0 1017434
12:00+26з22580 0.0 10171259
15:00+28з224895 0.0 10162043
18:00+28з225340 0.0 10151966
21:00+22сз237613 0.0 101523
5 июля, вт
вт500:00+19с118114 0.0 101611
03:00+20ююз117685 0.1 101611
06:00+19ююз2282100 0.3 101622
09:00+23юз2364100 0.3 1016305
12:00+27юз345320 0.0 10161072
15:00+28юз444996 0.0 10151790
18:00+27зюз455870 0.0 10151011
21:00+22зсз227699 0.3 101516
6 июля, ср
ср600:00+19ссз2285100 0.0 101621
03:00+18ссв228498 0.0 101612
06:00+18всв228886 0.0 101658
09:00+23в336897 0.0 1015358
12:00+24юв2273100 0.1 101472
15:00+28ююв595298 0.3 10122066
18:00+22с578722 1.0 1011257
21:00+19сз579495 4.7 1013353
7 июля, чт
чт700:00+15с3697100 0.0 1014231
03:00+14ссз359799 0.0 1014204
06:00+14ссз3695100 0.1 1015236
09:00+17ссв568399 0.1 1015436
12:00+21св556866 0.0 1015789
15:00+23ссв336193 0.0 10151168
18:00+21ссз577363 0.2 1014391
21:00+17ссз358727 1.6 101490
8 июля, пт
пт800:00+16ссв3791100 1.8 1014139
03:00+16ссв2493100 2.4 101495
06:00+16в009684 0.8 101459
09:00+19ссв3388100 0.8 1014237
12:00+23зсз117148 0.0 1014750
15:00+25св226361 0.1 10131046
18:00+25с326856 2.4 1012441
21:00+20с359399 2.4 1012105